When you browse on this site, cookies collect data to enhance your experience and personalize the content and advertising you see.
Visit our Privacy Policy to learn more. By continuing to use the site, you agree to this use of cookies and data.
  • In Czech Republic
  • List of Countries
  • For 7 days
  • Water Temperature
  • Satellite Maps
  • Weather Map
  • Weather Widgets
  • user-avatar
    Login

    Hourly Weather Natitingou

    Today, 17 November, Saturday

    Time Temperature Precipitation Wind Pressure Humidity
    00:00 +27°C° 0 mm 1 mps 717 mmHg 23%
    01:00 +26°C° 0 mm 1 mps 717 mmHg 24%
    02:00 +26°C° 0 mm 1 mps 717 mmHg 24%
    03:00 +25°C° 0 mm 1 mps 717 mmHg 25%
    04:00 +25°C° 0 mm 1 mps 717 mmHg 27%
    05:00 +24°C° 0 mm 1 mps 718 mmHg 29%
    06:00 +24°C° 0 mm 1 mps 718 mmHg 31%
    07:00 +26°C° 0 mm 1 mps 718 mmHg 32%
    08:00 +29°C° 0 mm 2 mps 719 mmHg 33%
    09:00 +31°C° 0 mm 2 mps 719 mmHg 34%
    10:00 +34°C° 0 mm 1 mps 719 mmHg 29%
    11:00 +37°C° 0 mm 1 mps 719 mmHg 24%
    12:00 +38°C° 0 mm 0 mps 718 mmHg 19%
    13:00 +37°C° 0 mm 0 mps 718 mmHg 18%
    14:00 +37°C° 0 mm 0 mps 717 mmHg 18%
    15:00 +37°C° 0 mm 0 mps 716 mmHg 17%
    16:00 +34°C° 0 mm 0 mps 716 mmHg 19%
    17:00 +32°C° 0 mm 0 mps 716 mmHg 21%
    18:00 +30°C° 0 mm 0 mps 716 mmHg 24%
    19:00 +29°C° 0 mm 0 mps 716 mmHg 24%
    20:00 +28°C° 0 mm 0 mps 717 mmHg 25%
    21:00 +27°C° 0 mm 0 mps 717 mmHg 26%
    22:00 +27°C° 0 mm 0 mps 717 mmHg 27%
    23:00 +27°C° 0 mm 0 mps 717 mmHg 27%

    Tomorrow, 18 November, Sunday

    Time Temperature Precipitation Wind Pressure Humidity
    00:00 +26°C° 0 mm 0 mps 717 mmHg 27%
    01:00 +28°C° 0 mm 1 mps 717 mmHg 28%
    02:00 +27°C° 0 mm 1 mps 717 mmHg 29%
    03:00 +27°C° 0 mm 1 mps 716 mmHg 30%
    04:00 +26°C° 0 mm 1 mps 717 mmHg 36%
    05:00 +26°C° 0 mm 1 mps 717 mmHg 42%
    06:00 +25°C° 0 mm 1 mps 717 mmHg 47%
    07:00 +27°C° 0 mm 2 mps 718 mmHg 49%
    08:00 +29°C° 0 mm 2 mps 718 mmHg 50%
    09:00 +31°C° 0 mm 3 mps 719 mmHg 51%
    10:00 +35°C° 0 mm 2 mps 718 mmHg 43%
    11:00 +37°C° 0 mm 2 mps 718 mmHg 35%
    12:00 +39°C° 0 mm 1 mps 718 mmHg 26%
    13:00 +40°C° 0 mm 1 mps 717 mmHg 24%
    14:00 +37°C° 0 mm 0 mps 716 mmHg 23%
    15:00 +37°C° 0 mm 0 mps 716 mmHg 21%
    16:00 +35°C° 0 mm 0 mps 716 mmHg 23%
    17:00 +33°C° 0 mm 0 mps 715 mmHg 26%
    18:00 +33°C° 0 mm 1 mps 715 mmHg 29%
    19:00 +30°C° 0 mm 0 mps 716 mmHg 30%
    20:00 +29°C° 0 mm 0 mps 716 mmHg 32%
    21:00 +29°C° 0 mm 0 mps 717 mmHg 33%
    22:00 +28°C° 0 mm 0 mps 717 mmHg 34%
    23:00 +28°C° 0 mm 0 mps 717 mmHg 35%

    Day after tomorrow, 19 November, Monday

    Time Temperature Precipitation Wind Pressure Humidity
    00:00 +27°C° 0 mm 0 mps 716 mmHg 36%
    01:00 +29°C° 0 mm 1 mps 716 mmHg 35%
    02:00 +28°C° 0 mm 1 mps 716 mmHg 35%
    03:00 +28°C° 0 mm 1 mps 715 mmHg 35%
    04:00 +27°C° 0 mm 1 mps 716 mmHg 36%
    05:00 +27°C° 0 mm 1 mps 716 mmHg 37%
    06:00 +26°C° 0 mm 1 mps 716 mmHg 37%
    07:00 +29°C° 0 mm 1 mps 717 mmHg 37%
    08:00 +31°C° 0 mm 2 mps 718 mmHg 37%
    09:00 +34°C° 0 mm 2 mps 718 mmHg 37%
    10:00 +37°C° 0 mm 2 mps 718 mmHg 32%
    11:00 +39°C° 0 mm 1 mps 717 mmHg 26%
    12:00 +39°C° 0 mm 0 mps 717 mmHg 21%
    13:00 +38°C° 0 mm 0 mps 716 mmHg 20%
    14:00 +38°C° 0 mm 0 mps 715 mmHg 20%
    15:00 +37°C° 0 mm 0 mps 715 mmHg 20%
    16:00 +37°C° 0 mm 1 mps 715 mmHg 23%
    17:00 +35°C° 0 mm 1 mps 715 mmHg 25%
    18:00 +33°C° 0 mm 1 mps 715 mmHg 28%
    19:00 +33°C° 0 mm 1 mps 715 mmHg 31%
    20:00 +32°C° 0 mm 1 mps 716 mmHg 34%
    21:00 +31°C° 0 mm 1 mps 716 mmHg 38%
    22:00 +30°C° 0 mm 1 mps 716 mmHg 40%
    23:00 +30°C° 0 mm 1 mps 716 mmHg 42%

    20 November, Tuesday

    Time Temperature Precipitation Wind Pressure Humidity
    00:00 +29°C° 0 mm 1 mps 716 mmHg 45%
    01:00 +29°C° 0 mm 1 mps 716 mmHg 47%
    02:00 +28°C° 0 mm 1 mps 716 mmHg 49%
    03:00 +28°C° 0 mm 1 mps 715 mmHg 52%
    04:00 +27°C° 0.2 mm 1 mps 716 mmHg 56%
    05:00 +27°C° 0.2 mm 2 mps 716 mmHg 60%
    06:00 +26°C° 0.2 mm 2 mps 717 mmHg 65%
    07:00 +28°C° 0 mm 2 mps 717 mmHg 60%
    08:00 +30°C° 0 mm 3 mps 718 mmHg 56%
    09:00 +33°C° 0 mm 3 mps 718 mmHg 51%
    10:00 +35°C° 0 mm 3 mps 718 mmHg 44%
    11:00 +37°C° 0 mm 2 mps 718 mmHg 37%
    12:00 +39°C° 0 mm 2 mps 717 mmHg 30%
    13:00 +39°C° 0 mm 1 mps 717 mmHg 27%
    14:00 +40°C° 0 mm 1 mps 716 mmHg 24%
    15:00 +38°C° 0 mm 0 mps 715 mmHg 22%
    16:00 +36°C° 0 mm 0 mps 715 mmHg 24%
    17:00 +35°C° 0 mm 1 mps 716 mmHg 27%
    18:00 +33°C° 0 mm 1 mps 716 mmHg 29%
    19:00 +31°C° 0 mm 0 mps 716 mmHg 30%
    20:00 +30°C° 0 mm 0 mps 717 mmHg 31%
    21:00 +29°C° 0 mm 0 mps 717 mmHg 32%
    22:00 +29°C° 0 mm 0 mps 717 mmHg 33%
    23:00 +29°C° 0 mm 0 mps 717 mmHg 34%

    21 November, Wednesday

    Time Temperature Precipitation Wind Pressure Humidity
    00:00 +30°C° 0 mm 1 mps 717 mmHg 34%
    01:00 +29°C° 0 mm 1 mps 716 mmHg 36%
    02:00 +29°C° 0 mm 1 mps 716 mmHg 38%
    03:00 +28°C° 0 mm 1 mps 716 mmHg 39%
    04:00 +27°C° 0 mm 1 mps 716 mmHg 43%
    05:00 +27°C° 0 mm 1 mps 716 mmHg 46%
    06:00 +27°C° 0 mm 1 mps 717 mmHg 49%
    07:00 +29°C° 0 mm 1 mps 717 mmHg 48%
    08:00 +31°C° 0 mm 2 mps 718 mmHg 48%
    09:00 +32°C° 0 mm 2 mps 718 mmHg 47%
    10:00 +36°C° 0 mm 2 mps 718 mmHg 39%
    11:00 +37°C° 0 mm 1 mps 717 mmHg 31%
    12:00 +41°C° 0 mm 1 mps 717 mmHg 24%
    13:00 +41°C° 0 mm 1 mps 716 mmHg 22%
    14:00 +41°C° 0 mm 1 mps 715 mmHg 20%
    15:00 +41°C° 0 mm 1 mps 715 mmHg 19%
    16:00 +39°C° 0 mm 1 mps 715 mmHg 21%
    17:00 +36°C° 0 mm 1 mps 715 mmHg 23%
    18:00 +34°C° 0 mm 1 mps 716 mmHg 25%
    19:00 +33°C° 0 mm 1 mps 716 mmHg 26%
    20:00 +32°C° 0 mm 1 mps 716 mmHg 27%
    21:00 +31°C° 0 mm 1 mps 717 mmHg 28%
    22:00 +31°C° 0 mm 1 mps 716 mmHg 29%
    23:00 +30°C° 0 mm 1 mps 716 mmHg 30%

    22 November, Thursday

    Time Temperature Precipitation Wind Pressure Humidity
    00:00 +29°C° 0 mm 1 mps 716 mmHg 31%
    01:00 +29°C° 0 mm 1 mps 716 mmHg 35%
    02:00 +28°C° 0 mm 1 mps 716 mmHg 39%
    03:00 +28°C° 0 mm 1 mps 715 mmHg 43%
    04:00 +27°C° 0 mm 1 mps 716 mmHg 49%
    05:00 +27°C° 0 mm 1 mps 716 mmHg 56%
    06:00 +26°C° 0 mm 1 mps 716 mmHg 62%
    07:00 +28°C° 0 mm 1 mps 717 mmHg 59%
    08:00 +30°C° 0 mm 2 mps 718 mmHg 57%
    09:00 +32°C° 0 mm 2 mps 718 mmHg 54%
    10:00 +35°C° 0 mm 2 mps 718 mmHg 44%
    11:00 +37°C° 0 mm 1 mps 717 mmHg 34%
    12:00 +38°C° 0 mm 0 mps 717 mmHg 24%
    13:00 +41°C° 0 mm 1 mps 716 mmHg 22%
    14:00 +41°C° 0 mm 1 mps 715 mmHg 20%
    15:00 +41°C° 0 mm 1 mps 715 mmHg 18%
    16:00 +37°C° 0 mm 1 mps 715 mmHg 20%
    17:00 +35°C° 0 mm 1 mps 715 mmHg 22%
    18:00 +33°C° 0 mm 1 mps 715 mmHg 23%
    19:00 +32°C° 0 mm 1 mps 715 mmHg 25%
    20:00 +29°C° 0 mm 0 mps 716 mmHg 26%
    21:00 +28°C° 0 mm 0 mps 716 mmHg 27%
    22:00 +28°C° 0 mm 0 mps 716 mmHg 29%
    23:00 +29°C° 0 mm 1 mps 715 mmHg 30%
    Show more